Powrót do katalogu

STARLINK-1942

AktywnyŁącznośćVLEO
NORAD 46794·PAYLOAD·🇺🇸 United States

Wystrzelony Oct 24, 2020 z Cape Canaveral Space Force Station

Loading…

Następne Przeloty (najbliższe 24 godziny)

TLE

ŚwieżeSource: CelesTrak SupGP

Epoka: Sep 14, 2026, 17:15 UTC

1 46794C 20074BH  26257.71923611  .01247600  00000+0  92642-3 0  2577
2 46794  53.0221  79.1082 0009360 280.5247 106.9986 16.14000658    19

Śledź STARLINK-1942 w czasie rzeczywistym z AllMySat

Download on the App Store